Wind_Speed
16 17 17 16 14 15 15 14 12 11 8 8 9 9 9 8 7 7 7 7 6 5 4 4 5 7 8 10 11 13 14 15 17 18 19 19 20 20 21 21 20 19 18 17
14 14 14 14 15 15 14 14 13 11 9 8 9 9 8 7 6 7 7 7 6 5 4 5 5 6 8 9 10 12 14 15 17 18 19 19 20 20 21 21 20 19 18 17
12 12 14 14 15 15 15 14 12 9 8 8 9 9 7 7 6 7 7 7 7 6 5 5 6 6 7 9 10 12 14 16 17 19 19 20 20 21 21 21 20 19 18 16
12 13 14 15 15 14 14 12 10 8 7 7 7 7 7 7 6 7 7 7 7 7 6 6 6 7 7 8 10 12 14 16 17 18 19 19 20 21 21 21 20 19 18 17
11 12 13 13 13 13 12 11 9 8 8 7 7 6 9 9 7 6 7 8 8 7 7 7 7 7 8 9 10 11 13 15 17 18 19 19 20 21 21 21 21 19 18 17
9 9 10 11 11 11 10 8 6 5 6 6 6 6 8 9 7 7 8 8 8 8 8 7 7 7 8 9 10 11 13 15 16 18 19 19 20 20 21 21 21 20 19 17
6 7 8 9 9 9 8 7 4 3 3 4 6 7 9 9 9 9 9 8 8 8 8 8 8 8 8 9 10 11 12 14 16 17 18 19 20 20 20 21 21 20 19 17
3 3 5 6 7 8 8 7 5 2 1 3 6 8 11 10 9 9 9 9 9 8 9 9 8 8 9 9 10 11 12 13 15 16 17 19 20 20 20 21 21 21 19 18
4 2 4 5 6 7 7 6 5 3 1 1 5 10 12 9 9 9 9 9 9 9 9 9 9 9 9 9 10 11 12 13 14 15 17 18 19 20 20 20 21 21 20 19
5 2 3 4 5 5 5 5 5 5 4 3 4 9 13 11 9 10 10 10 10 10 10 10 10 10 9 9 10 11 11 12 13 14 16 17 18 19 20 20 20 20 20 19
4 2 2 3 4 4 5 5 5 5 5 5 7 10 13 14 12 11 11 10 10 11 11 11 11 10 10 10 10 10 11 12 13 14 15 16 17 18 19 20 20 20 20 19
3 3 2 3 4 5 6 6 7 7 7 8 10 12 13 14 13 12 12 12 11 11 12 12 11 11 10 10 10 10 11 11 12 13 14 15 16 18 18 19 20 20 19 19
3 3 3 3 4 5 7 7 7 8 8 8 9 12 13 14 13 13 13 13 13 12 12 12 12 12 11 11 11 11 11 11 12 13 14 14 15 17 18 18 19 19 19 19
3 3 4 5 6 7 8 8 9 10 10 10 11 12 14 15 15 14 15 15 15 14 13 13 13 13 12 12 12 11 11 12 12 13 14 14 15 16 17 18 18 18 18 18
5 6 6 8 9 11 11 11 11 12 12 13 12 14 15 15 16 16 16 16 16 15 15 15 14 14 14 13 13 12 12 12 13 13 14 14 15 15 16 17 17 17 18 18
7 8 9 10 11 12 13 13 12 13 14 14 15 15 15 16 17 17 17 16 17 17 16 16 15 15 15 14 14 14 13 13 13 13 14 14 15 15 16 16 16 16 17 17
9 10 11 11 13 14 13 13 14 15 15 16 16 15 15 16 17 17 17 17 17 18 17 17 17 16 16 16 15 15 15 14 14 14 14 15 15 15 15 15 16 16 16 16
11 12 13 13 14 15 15 16 16 17 17 17 17 17 17 17 17 17 17 17 17 18 18 18 18 18 18 17 17 16 16 16 15 15 15 15 15 15 16 16 15 16 16 16
13 15 15 16 16 17 16 17 17 18 18 19 19 18 18 18 19 18 18 18 18 18 19 19 19 19 19 19 18 18 17 17 17 16 16 16 16 16 16 16 16 16 16 16
15 16 17 18 18 19 18 19 19 20 21 20 20 20 20 20 20 20 19 19 19 20 20 20 20 20 20 20 20 20 19 19 18 18 18 17 17 17 17 16 16 16 16 16
18 19 19 20 21 21 21 21 21 23 23 21 22 22 22 22 23 22 21 21 21 21 21 22 22 22 22 22 22 22 21 21 20 20 19 19 19 18 18 17 17 17 17 17
22 22 22 23 24 24 24 24 24 25 25 25 25 25 25 25 25 24 24 24 24 23 23 23 23 24 24 24 24 23 23 22 22 21 21 21 20 19 19 19 18 18 18 18
25 26 27 27 28 28 28 28 28 29 29 29 29 28 27 27 27 27 26 26 26 26 25 25 25 25 25 25 26 25 25 25 24 23 23 22 22 21 21 20 20 20 19 19
28 29 31 31 31 31 32 33 33 33 32 32 32 31 30 30 29 29 29 29 28 28 28 27 27 27 27 27 27 27 27 27 26 25 25 24 24 23 23 22 22 22 21 21
32 33 34 35 35 36 35 35 35 36 36 36 35 34 34 33 32 32 32 31 31 31 30 30 30 29 29 29 29 29 29 28 28 28 27 26 26 25 25 24 24 24 23 23
34 36 37 38 38 40 40 39 39 39 39 38 37 37 36 36 35 35 34 34 34 34 33 32 32 32 31 31 31 31 31 30 30 30 29 29 28 27 27 26 26 25 25 24
Wind_Direction
205 209 210 212 214 215 223 227 233 248 250 256 267 273 275 270 266 269 268 265 264 269 278 293 310 325 330 335 340 343 346 348 348 349 348 347 347 345 344 344 341 338 335 333
194 198 200 201 207 215 223 228 237 242 248 253 264 274 266 260 261 268 268 263 265 269 277 291 308 322 330 338 343 345 347 349 349 350 350 349 349 348 347 346 345 343 339 336
185 188 190 198 207 216 223 227 232 244 246 255 267 274 265 258 259 265 263 259 262 269 274 284 302 319 329 337 341 344 346 348 349 350 350 350 350 350 349 348 347 346 344 341
178 188 192 199 206 214 221 225 235 242 248 266 273 284 286 276 269 264 256 254 258 265 275 285 300 313 323 331 337 340 343 346 348 350 351 352 352 351 350 350 349 347 347 345
179 190 198 200 207 214 220 224 234 240 249 266 279 282 284 283 268 260 256 253 256 262 272 283 294 306 318 325 331 337 341 345 347 350 352 352 353 353 353 353 353 351 349 349
172 187 200 200 205 208 209 209 219 238 253 265 278 277 279 277 278 268 260 257 257 262 270 279 289 301 313 321 328 334 338 343 346 350 352 353 353 354 355 356 356 355 353 352
164 185 195 199 200 199 200 204 217 242 264 284 284 280 264 272 283 273 262 257 259 263 268 276 285 296 307 316 323 330 336 341 345 349 352 354 355 356 357 358 359 358 357 356
138 184 190 195 200 195 196 209 220 223 298 306 306 293 279 285 278 268 262 260 263 265 269 275 282 291 301 310 318 326 333 338 343 348 352 355 357 357 358 360 1 1 1 0
139 189 187 194 196 205 203 220 236 250 320 336 309 299 294 282 271 266 264 262 264 266 270 274 280 287 296 304 313 322 330 336 341 346 351 354 357 359 360 1 2 3 4 4
135 180 191 199 206 213 227 230 230 230 241 219 258 284 286 294 284 274 269 265 264 268 271 273 278 284 291 299 308 318 326 333 338 343 348 353 356 358 0 2 2 3 5 6
158 162 192 204 219 227 235 241 247 248 246 239 236 252 275 290 287 277 270 267 267 269 271 273 275 280 286 294 303 312 321 329 335 340 345 349 354 357 359 2 2 3 4 5
182 192 231 244 248 255 258 255 250 250 247 250 259 272 280 287 282 275 271 271 272 271 271 272 274 276 281 288 298 307 316 324 330 336 341 345 351 355 357 0 2 4 5 5
193 199 207 237 257 269 270 264 261 261 264 264 263 274 280 286 282 277 273 270 272 273 271 272 272 274 277 284 293 302 310 318 325 331 336 341 346 351 355 358 1 3 4 6
241 235 249 247 256 274 280 276 270 266 264 263 263 268 272 279 281 279 276 272 270 272 271 270 270 270 274 280 288 296 303 311 319 325 331 336 341 346 350 354 357 360 2 4
261 259 265 271 272 276 279 281 276 272 271 271 270 271 272 275 279 280 277 272 269 270 269 269 269 269 270 276 283 290 297 304 311 318 324 330 334 339 344 348 352 355 358 360
277 268 269 274 278 280 281 282 282 278 276 275 274 275 273 274 276 278 275 271 268 270 270 269 269 268 268 271 277 284 291 297 304 310 316 322 328 333 337 341 345 349 352 355
283 277 274 274 278 280 284 286 282 279 277 278 278 279 275 273 276 277 275 272 270 270 271 269 268 268 267 268 273 279 285 290 297 303 308 315 320 326 330 334 338 342 346 349
286 284 283 280 278 279 285 283 282 280 278 279 278 276 275 275 277 277 275 272 270 270 270 269 268 268 267 267 270 275 280 285 290 296 301 306 312 318 323 326 330 335 338 340
287 285 284 283 282 283 287 286 284 281 279 278 278 279 276 274 275 275 275 272 271 271 270 269 268 268 267 267 269 272 276 281 286 290 295 300 305 310 314 318 322 327 331 333
286 284 284 284 282 283 285 285 284 281 280 278 278 278 276 272 273 275 276 274 273 272 269 268 267 267 267 267 268 269 273 277 282 285 289 294 298 303 307 310 314 319 323 327
288 285 283 283 283 284 284 282 281 279 280 280 278 277 276 274 273 274 274 273 272 272 269 267 266 266 266 266 267 268 270 274 278 281 285 289 292 296 300 303 306 310 314 318
285 285 285 283 281 280 283 280 278 278 279 278 278 277 277 276 275 273 273 273 271 271 270 268 267 266 265 265 266 267 269 271 274 278 281 284 287 290 294 297 300 302 306 310
281 280 279 279 278 280 280 279 278 278 278 278 277 277 277 275 274 272 271 271 271 270 269 268 267 266 265 264 265 266 268 269 271 274 277 279 282 285 288 291 294 296 299 303
280 280 279 278 278 277 277 276 277 277 277 277 276 276 275 274 273 272 270 270 270 270 269 268 268 267 265 264 264 265 266 267 269 271 274 276 279 281 284 287 290 292 294 297
281 279 278 277 277 275 274 275 274 274 274 275 275 275 275 273 272 272 271 269 269 269 269 268 268 267 265 264 264 265 266 267 268 270 271 274 276 279 281 283 285 288 290 292
281 280 279 278 276 274 275 274 274 274 274 274 274 274 274 273 271 270 270 269 268 268 269 268 267 266 265 264 264 264 265 266 267 269 270 272 273 275 278 279 281 283 285 287
Height
5804 5808 5812 5815 5819 5823 5825 5827 5829 5831 5832 5835 5837 5837 5838 5838 5839 5840 5841 5841 5842 5842 5842 5842 5842 5841 5841 5839 5838 5836 5834 5831 5828 5825 5821 5817 5814 5810 5805 5801 5797 5793 5789 5785
5803 5807 5811 5814 5818 5821 5823 5826 5828 5829 5832 5834 5835 5836 5836 5836 5838 5839 5840 5840 5840 5841 5841 5841 5841 5840 5840 5838 5837 5835 5833 5830 5827 5824 5820 5816 5812 5808 5804 5799 5795 5791 5787 5784
5803 5807 5810 5814 5817 5819 5822 5825 5826 5828 5831 5833 5834 5834 5834 5835 5836 5837 5838 5839 5839 5840 5840 5840 5840 5839 5839 5837 5836 5834 5832 5829 5826 5823 5819 5815 5811 5807 5803 5798 5794 5790 5786 5782
5803 5806 5810 5813 5816 5819 5821 5823 5825 5828 5830 5831 5833 5833 5833 5834 5835 5836 5837 5838 5838 5839 5839 5839 5839 5838 5837 5836 5835 5833 5831 5828 5825 5822 5818 5814 5810 5806 5802 5798 5793 5789 5785 5781
5804 5807 5810 5813 5816 5818 5821 5824 5826 5828 5830 5831 5832 5833 5834 5833 5834 5835 5836 5837 5837 5838 5838 5838 5838 5837 5836 5835 5834 5832 5830 5827 5824 5821 5818 5814 5810 5806 5801 5797 5792 5788 5784 5781
5805 5808 5811 5813 5816 5818 5821 5824 5826 5828 5829 5830 5831 5832 5833 5832 5832 5833 5834 5835 5836 5836 5836 5836 5836 5836 5835 5834 5833 5831 5829 5827 5824 5820 5817 5813 5809 5805 5801 5797 5792 5788 5784 5780
5807 5809 5812 5814 5817 5819 5822 5824 5826 5827 5828 5830 5831 5832 5832 5831 5832 5832 5833 5834 5834 5835 5835 5835 5835 5835 5834 5833 5831 5830 5828 5826 5823 5820 5817 5813 5809 5805 5801 5796 5792 5788 5783 5780
5810 5812 5813 5816 5818 5820 5822 5824 5826 5827 5828 5829 5830 5830 5831 5831 5831 5831 5832 5832 5833 5833 5833 5833 5833 5833 5832 5831 5830 5829 5827 5824 5822 5819 5816 5813 5809 5805 5801 5797 5792 5788 5784 5780
5811 5813 5815 5816 5818 5820 5822 5823 5825 5827 5827 5829 5831 5830 5829 5829 5830 5830 5830 5831 5831 5831 5832 5832 5832 5831 5831 5830 5829 5827 5826 5823 5821 5818 5816 5812 5809 5805 5801 5797 5792 5788 5784 5780
5812 5814 5816 5818 5819 5821 5823 5824 5825 5826 5827 5829 5831 5830 5828 5827 5828 5829 5829 5829 5829 5829 5830 5830 5830 5829 5829 5828 5827 5826 5824 5822 5820 5818 5815 5812 5809 5805 5801 5797 5793 5789 5785 5781
5814 5815 5817 5818 5820 5821 5823 5824 5825 5826 5827 5827 5828 5830 5827 5826 5826 5826 5826 5826 5827 5827 5827 5828 5828 5827 5827 5826 5826 5824 5823 5821 5819 5817 5814 5812 5808 5805 5801 5797 5793 5789 5785 5782
5815 5817 5817 5819 5820 5821 5822 5822 5823 5824 5825 5825 5826 5829 5825 5824 5824 5824 5824 5824 5824 5825 5825 5825 5825 5825 5825 5824 5824 5823 5821 5820 5818 5816 5813 5811 5808 5805 5801 5798 5794 5790 5786 5782
5816 5817 5818 5819 5821 5821 5820 5821 5822 5822 5823 5823 5824 5826 5822 5821 5821 5821 5821 5822 5822 5822 5822 5822 5823 5823 5823 5822 5821 5821 5820 5818 5816 5815 5812 5810 5807 5805 5801 5798 5794 5791 5787 5783
5816 5816 5818 5819 5818 5818 5819 5819 5820 5820 5820 5821 5821 5821 5820 5819 5819 5819 5818 5819 5819 5819 5819 5820 5820 5820 5820 5820 5819 5818 5818 5816 5815 5813 5811 5809 5807 5804 5801 5798 5795 5791 5788 5784
5815 5816 5816 5816 5817 5817 5817 5817 5817 5818 5818 5818 5818 5817 5817 5817 5816 5816 5815 5815 5816 5816 5816 5816 5816 5817 5817 5817 5816 5816 5815 5814 5813 5811 5810 5808 5805 5803 5800 5797 5794 5791 5788 5785
5814 5815 5815 5815 5815 5815 5815 5815 5815 5815 5814 5814 5814 5814 5814 5813 5812 5812 5812 5812 5812 5812 5813 5813 5813 5813 5813 5813 5813 5813 5812 5812 5810 5809 5808 5806 5804 5802 5799 5797 5794 5791 5788 5785
5812 5812 5812 5812 5812 5812 5812 5812 5812 5811 5811 5811 5810 5811 5810 5809 5809 5808 5808 5808 5808 5809 5809 5809 5809 5809 5809 5809 5809 5809 5809 5808 5808 5807 5805 5804 5802 5800 5798 5795 5793 5790 5787 5785
5810 5809 5809 5809 5810 5808 5811 5809 5808 5807 5807 5807 5806 5806 5805 5805 5805 5804 5804 5804 5804 5804 5804 5804 5804 5805 5805 5805 5805 5805 5805 5805 5804 5803 5802 5801 5799 5797 5795 5793 5791 5789 5786 5784
5807 5806 5806 5805 5805 5805 5806 5804 5804 5803 5803 5802 5802 5802 5801 5801 5800 5800 5799 5799 5799 5800 5800 5800 5800 5800 5800 5800 5801 5801 5801 5801 5800 5800 5799 5797 5796 5794 5793 5791 5789 5787 5784 5782
5803 5802 5802 5801 5800 5800 5802 5800 5799 5799 5797 5797 5796 5796 5796 5796 5795 5795 5795 5794 5795 5795 5795 5795 5795 5795 5795 5795 5796 5796 5796 5796 5796 5795 5794 5793 5792 5791 5789 5788 5786 5784 5782 5780
5798 5797 5797 5796 5795 5795 5795 5794 5794 5794 5793 5791 5790 5790 5790 5790 5790 5790 5789 5789 5789 5789 5789 5789 5789 5789 5790 5790 5790 5790 5791 5791 5791 5790 5790 5789 5788 5787 5786 5784 5782 5781 5779 5777
5792 5791 5791 5790 5789 5790 5788 5787 5787 5786 5785 5784 5784 5784 5784 5784 5784 5784 5784 5783 5783 5783 5783 5783 5783 5783 5784 5784 5784 5784 5785 5785 5785 5784 5784 5784 5783 5782 5781 5780 5778 5777 5775 5773
5786 5786 5784 5784 5784 5782 5780 5779 5779 5778 5778 5777 5777 5777 5777 5777 5777 5777 5777 5777 5776 5776 5776 5776 5776 5777 5777 5777 5777 5778 5778 5778 5778 5778 5778 5777 5777 5776 5775 5774 5773 5772 5771 5769
5778 5777 5775 5775 5774 5773 5772 5771 5770 5769 5769 5769 5768 5768 5769 5769 5769 5769 5769 5769 5769 5769 5769 5769 5769 5769 5769 5769 5770 5770 5771 5771 5771 5771 5771 5771 5770 5770 5769 5768 5767 5766 5765 5764
5770 5768 5766 5765 5765 5763 5763 5762 5760 5760 5759 5759 5759 5759 5759 5759 5759 5759 5760 5760 5760 5760 5760 5760 5760 5761 5761 5761 5762 5762 5762 5763 5763 5763 5763 5763 5763 5763 5762 5762 5761 5760 5759 5758
5759 5757 5755 5754 5754 5752 5751 5750 5749 5748 5748 5748 5748 5748 5748 5749 5749 5749 5749 5750 5750 5750 5751 5751 5751 5751 5752 5752 5753 5753 5754 5754 5754 5755 5755 5755 5755 5755 5755 5754 5753 5753 5752 5751